Location: Unnamed
(54.5186°N, 36.2255°E)
Time: 17:42:06
(UTC+03:00)

ISS - Pass Details

Date: 23 February 2026
Orbit: 416 x 427 km, 51.6° (Epoch: 5 March)

Event Time Altitude Azimuth Distance (km) Brightness Sun altitude
Exits shadow 04:43:03 22° 109° (ESE) 969 -1.4 -25.9°
Drops below altitude 10° 04:44:32 10° 94° (E) 1,497 -0.1 -25.7°
Sets 04:46:42 0° 87° (E) 2,361 1.3 -25.4°
